Home > Weather > Regina > Past weeks

Flag for Canada Weather for the Past 2 Weeks in Regina, Saskatchewan, Canada

Now
66 °F

Partly sunny.


Feels Like: 66 °F
Forecast: N/A
Wind: 23 mph from Northwest

Location: Regina Weather Station

Current Time: May 6, 2016 at 4:31:46 PM

Latest Report: May 6, 2016 at 4:00 PM


Visibility: 8 mi

Pressure: 30.12 "Hg (28.15 "Hg at 577m altitude)

Humidity: 21%

Dew Point: 25 °F

Location of ReginaLocation

Historic Weather in Regina — Graph

°F

Regina Temperature Yesterday

Maximum temperature yesterday: 90 °F (at 1:00 PM)
Minimum temperature yesterday: 46 °F (at 5:00 AM)
Average temperature yesterday: 71 °F

High & Low Weather Summary for the Past Weeks

 TemperatureHumidityPressure
High90 °F (May 5, 1:00 PM)87% (May 2, 4:00 AM)30.39 "Hg (May 2, 4:00 AM)
Low30 °F (Apr 25, 6:00 AM)13% (Apr 29, 3:00 PM)29.70 "Hg (May 5, 3:00 PM)
Average52 °F40%30.09 "Hg
* Reported Apr 21 3:00 PM — May 6 3:00 PM, Regina, Weather by CustomWeather, © 2016

Note: Actual official high and low records may vary slightly from our data, if they occured in-between our weather recording intervals... More about our weather records

Advertising

Regina Weather History for the Previous 24 Hours

Scroll right to see more
 ConditionsComfort  
Time TempWeatherWind HumidityBarometerVisibility
3:00 PM
Fri, May 6
66 °FPartly sunny.23 mph22%30.14 "Hg8 mi
2:00 PM66 °FOvercast.21 mph24%30.14 "Hg10 mi
1:00 PM64 °FOvercast.23 mph26%30.14 "Hg10 mi
12:00 PM64 °FHigh level clouds.15 mph32%30.16 "Hg8 mi
11:00 AM63 °FPassing clouds.16 mph34%30.17 "Hg10 mi
10:00 AM59 °FPartly sunny.14 mph39%30.16 "Hg15 mi
9:00 AM54 °FBroken clouds.12 mph58%30.17 "Hg15 mi
8:00 AM50 °FPartly sunny.15 mph67%30.16 "Hg15 mi
7:00 AM50 °FPartly sunny.13 mph67%30.11 "Hg13 mi
6:00 AM48 °FPartly sunny.14 mph76%30.07 "Hg13 mi
5:00 AM48 °FPassing clouds.16 mph76%30.02 "Hg15 mi
4:00 AM50 °FPassing clouds.15 mph71%30.01 "Hg15 mi
3:00 AM50 °FClear.16 mph67%29.98 "Hg15 mi
2:00 AM54 °FPassing clouds.18 mph63%29.94 "Hg15 mi
1:00 AM59 °FPassing clouds.28 mph51%29.89 "Hg15 mi
12:00 AM61 °FPassing clouds.22 mph48%29.86 "Hg14 mi
11:00 PM
Thu, May 5
64 °FPassing clouds.18 mph46%29.83 "Hg14 mi
10:00 PM68 °FPassing clouds.13 mph43%29.79 "Hg15 mi
9:00 PM70 °FPassing clouds.13 mph40%29.75 "Hg15 mi
8:00 PM75 °FPartly sunny.10 mph25%29.73 "Hg15 mi
7:00 PM82 °FScattered clouds.22 mph21%29.73 "Hg15 mi
6:00 PM84 °FPartly sunny.20 mph18%29.72 "Hg15 mi
5:00 PM88 °FPartly sunny.22 mph17%29.71 "Hg15 mi
4:00 PM90 °FPartly sunny.20 mph17%29.70 "Hg15 mi
Weather by CustomWeather, © 2016

See weather overviewHow to use our weather pages